Burlington, NC

4:12 AM EST on December 15, 2017 (GMT -0500)
Burlington-Alamance Regional

Weather History for KBUY - August, 2013

Change the Weather History Date:

Wednesday, August 7, 2013

  Actual Average Record
Temperature  
Mean Temperature 76 °F -  
Max Temperature 84 °F 88 °F 99 °F (2007)
Min Temperature 69 °F 68 °F 52 °F (2004)
Cooling Degree Days 10    
Growing Degree Days 26 (Base 50)    
Moisture  
Dew Point 68 °F    
Average Humidity 79    
Maximum Humidity 93    
Minimum Humidity 54    
Precipitation  
Precipitation 0.00 in - - ()
Sea Level Pressure  
Sea Level Pressure 30.06 in    
Wind  
Wind Speed 2 mph (South)    
Max Wind Speed 8 mph    
Max Gust Speed -    
Visibility 10 miles    
Events      
Averages and records for this station are not official NWS values.
T = Trace of Precipitation, MM = Missing Value Source: NWS Daily Summary

Daily Weather History Graph

Daily Weather History Graph

Search for Another Location

Airport or City:

Trip Planner

Search our weather history database for the weather conditions in past years. The results will help you decide how hot, cold, wet, or windy it might be!

Date:

Astronomy

Aug. 07, 2013 Rise Set
Actual Time 6:30 AM EDT 8:16 PM EDT
Civil Twilight 6:02 AM EDT 8:44 PM EDT
Nautical Twilight 5:28 AM EDT 9:17 PM EDT
Astronomical Twilight 4:52 AM EDT 9:53 PM EDT
Moon 7:13 AM EDT (8/7) 8:27 PM EDT (8/7)
Length of Visible Light 14h 42m
Length of Day
13h 46m
New Moon, 1% of the Moon is Illuminated
Aug 7
New Moon
Aug 14
First Quarter
Aug 20
Full
Aug 28
Last Quarter
Sep 5
New

Hourly Weather History & Observations

Time (EDT) Temp. Heat Index Dew Point Humidity Pressure Visibility Wind Dir Wind Speed Gust Speed Precip Events Conditions
12:54 AM 69.1 °F - 66.0 °F 90% 30.06 in 10.0 mi Calm Calm - N/A   Overcast
1:54 AM 69.1 °F - 66.9 °F 93% 30.06 in 10.0 mi Calm Calm - N/A   Overcast
2:54 AM 71.1 °F - 66.9 °F 87% 30.06 in 10.0 mi Calm Calm - N/A   Overcast
3:54 AM 70.0 °F - 66.9 °F 90% 30.06 in 10.0 mi Calm Calm - N/A   Overcast
4:54 AM 71.1 °F - 66.9 °F 87% 30.06 in 10.0 mi Calm Calm - N/A   Overcast
5:54 AM 70.0 °F - 68.0 °F 93% 30.06 in 8.0 mi Calm Calm - N/A   Overcast
6:54 AM 70.0 °F - 68.0 °F 93% 30.08 in 9.0 mi Calm Calm - N/A   Overcast
7:54 AM 71.1 °F - 68.0 °F 90% 30.08 in 10.0 mi Calm Calm - N/A   Overcast
8:54 AM 73.0 °F - 68.0 °F 84% 30.09 in 10.0 mi South 3.5 mph - N/A   Mostly Cloudy
9:54 AM 75.9 °F - 69.1 °F 79% 30.09 in 10.0 mi SSE 3.5 mph - N/A   Overcast
10:54 AM 79.0 °F - 68.0 °F 69% 30.09 in 10.0 mi South 6.9 mph - N/A   Scattered Clouds
11:54 AM 82.0 °F 84.9 °F 68.0 °F 62% 30.09 in 10.0 mi SSW 8.1 mph - N/A   Mostly Cloudy
12:54 PM 82.0 °F 85.5 °F 69.1 °F 65% 30.09 in 10.0 mi South 8.1 mph - N/A   Partly Cloudy
1:54 PM 82.9 °F 85.8 °F 68.0 °F 60% 30.07 in 10.0 mi South 8.1 mph - N/A   Clear
2:54 PM 82.9 °F 84.6 °F 64.9 °F 54% 30.06 in 10.0 mi South 8.1 mph - N/A   Clear
3:54 PM 81.0 °F 83.8 °F 68.0 °F 65% 30.05 in 10.0 mi Calm Calm - N/A   Clear
4:54 PM 82.0 °F 85.5 °F 69.1 °F 65% 30.04 in 10.0 mi Calm Calm - N/A   Mostly Cloudy
5:54 PM 82.0 °F 86.3 °F 71.1 °F 69% 30.03 in 10.0 mi SSE 4.6 mph - N/A   Mostly Cloudy
6:54 PM 80.1 °F 83.2 °F 70.0 °F 71% 30.03 in 10.0 mi Calm Calm - N/A   Clear
7:54 PM 78.1 °F - 70.0 °F 76% 30.04 in 10.0 mi Calm Calm - N/A   Partly Cloudy
8:54 PM 73.9 °F - 71.1 °F 91% 30.04 in 10.0 mi Calm Calm - N/A   Clear
9:54 PM 75.0 °F - 71.1 °F 87% 30.04 in 10.0 mi Calm Calm - N/A   Clear
10:54 PM 73.9 °F - 70.0 °F 87% 30.05 in 10.0 mi Calm Calm - N/A   Clear
11:54 PM 73.0 °F - 70.0 °F 90% 30.05 in 10.0 mi Calm Calm - N/A   Clear